Location: Shenandoah County Park
(38.9356°N, 78.4524°W)
Time: 09:49:26
(UTC-04:00)

Transit 4A - Pass Details

Date: 07 March 2024
Orbit: 871 x 972 km, 66.8° (Epoch: 13 April)

Event Time Altitude Azimuth Distance (km) Brightness Sun altitude
Rises 05:52:32 0° 345° (NNW) 3,492 10.8 -9.4°
Reaches altitude 10° 05:57:16 10° 20° (NNE) 2,533 10.5 -8.5°
Maximum altitude 05:59:00 11° 37° (NE) 2,438 10.6 -8.1°
Drops below altitude 10° 06:00:43 10° 55° (NE) 2,524 11.1 -7.8°
Sets 06:05:23 0° 89° (E) 3,455 13.6 -6.9°
